Fitchburg, MA

10:29 AM EDT on May 24, 2018 (GMT -0400)
Fitchburg Municipal

Weather History for KFIT - December, 2012

Change the Weather History Date:

Saturday, December 1, 2012

  Actual Average (KORH) Record (KORH)
Temperature  
Mean Temperature 27 °F -  
Max Temperature 28 °F 39 °F 65 °F (2006)
Min Temperature 26 °F 25 °F 5 °F (1963)
Degree Days  
Heating Degree Days 38    
Moisture  
Dew Point 20 °F    
Average Humidity 76    
Maximum Humidity 93    
Minimum Humidity 33    
Precipitation  
Precipitation 0.03 in - - ()
Sea Level Pressure  
Sea Level Pressure 30.59 in    
Wind  
Wind Speed 3 mph (North)    
Max Wind Speed 7 mph    
Max Gust Speed -    
Visibility 5 miles    
Events Snow    
Averages and records for this station are not official NWS values.
T = Trace of Precipitation, MM = Missing Value Source: NWS Daily Summary

Daily Weather History Graph

Daily Weather History Graph

Search for Another Location

Airport or City:

Astronomy

Dec. 01, 2012 Rise Set
Actual Time 6:57 AM EST 4:14 PM EST
Civil Twilight 6:26 AM EST 4:46 PM EST
Nautical Twilight 5:51 AM EST 5:21 PM EST
Astronomical Twilight 5:17 AM EST 5:55 PM EST
Moon 7:02 PM EST (12/1) 9:07 AM EST (12/1)
Length of Visible Light 10h 20m
Length of Day
9h 17m
Waning Gibbous, 92% of the Moon is Illuminated
Dec 1
Waning Gibbous
Dec 6
Last Quarter
Dec 13
New
Dec 20
First Quarter
Dec 28
Full

Hourly Weather History & Observations

Time (EST) Temp. Windchill Dew Point Humidity Pressure Visibility Wind Dir Wind Speed Gust Speed Precip Events Conditions
12:52 AM 28.9 °F 23.9 °F 3.0 °F 33% 30.58 in 10.0 mi NNE 4.6 mph - N/A   Overcast
1:52 AM 28.9 °F 25.2 °F 5.0 °F 36% 30.59 in 10.0 mi Variable 3.5 mph - N/A   Overcast
2:52 AM 27.0 °F - 12.0 °F 53% 30.59 in 10.0 mi Calm Calm - 0.00 in   Overcast
3:52 AM 26.1 °F - 14.0 °F 60% 30.57 in 10.0 mi Calm Calm - 0.00 in   Overcast
4:52 AM 27.0 °F - 12.0 °F 53% 30.58 in 10.0 mi Calm Calm - 0.00 in   Overcast
5:52 AM 26.1 °F 18.4 °F 16.0 °F 66% 30.61 in 10.0 mi North 6.9 mph - N/A   Overcast
6:52 AM 26.1 °F - 18.0 °F 71% 30.62 in 10.0 mi Calm Calm - N/A   Overcast
7:50 AM 26.6 °F 22.6 °F 17.6 °F 69% 30.62 in 2.0 mi North 3.5 mph - 0.00 in Snow Light Snow
7:52 AM 26.1 °F 21.9 °F 17.1 °F 69% 30.64 in 2.0 mi North 3.5 mph - 0.00 in Snow Light Snow
7:54 AM 26.6 °F 22.6 °F 17.6 °F 69% 30.62 in 1.8 mi North 3.5 mph - 0.00 in Snow Light Snow
8:07 AM 26.6 °F - 19.4 °F 74% 30.62 in 0.8 mi Calm Calm - 0.00 in Snow Light Snow
8:29 AM 26.6 °F 22.6 °F 19.4 °F 74% 30.62 in 1.2 mi North 3.5 mph - 0.00 in Snow Light Snow
8:52 AM 26.1 °F - 19.9 °F 78% 30.64 in 1.8 mi Calm Calm - 0.00 in Snow Light Snow
8:54 AM 26.6 °F 22.6 °F 19.4 °F 74% 30.62 in 2.0 mi North 3.5 mph - 0.00 in Snow Light Snow
9:10 AM 26.6 °F 21.2 °F 19.4 °F 74% 30.63 in 1.2 mi NNE 4.6 mph - 0.00 in Snow Light Snow
9:26 AM 26.6 °F 21.2 °F 19.4 °F 74% 30.63 in 3.0 mi North 4.6 mph - 0.01 in Snow Light Snow
9:41 AM 26.6 °F 20.0 °F 19.4 °F 74% 30.64 in 5.0 mi North 5.8 mph - 0.01 in Snow Light Snow
9:48 AM 26.6 °F 22.6 °F 19.4 °F 74% 30.63 in 1.8 mi NNE 3.5 mph - 0.01 in Snow Light Snow
9:52 AM 26.1 °F 21.9 °F 19.9 °F 78% 30.65 in 1.5 mi NNE 3.5 mph - 0.01 in Snow Light Snow
10:52 AM 27.0 °F 23.0 °F 21.0 °F 78% 30.62 in 1.8 mi NNE 3.5 mph - 0.01 in Snow Light Snow
10:59 AM 26.6 °F 22.6 °F 21.2 °F 80% 30.60 in 3.0 mi North 3.5 mph - 0.00 in Snow Light Snow
11:52 AM 27.0 °F 23.0 °F 21.0 °F 78% 30.60 in 10.0 mi NE 3.5 mph - 0.00 in   Overcast
12:28 PM 28.4 °F 23.3 °F 21.2 °F 74% 30.57 in 6.0 mi North 4.6 mph - 0.00 in Snow Light Snow
12:52 PM 28.0 °F 22.8 °F 21.9 °F 78% 30.58 in 8.0 mi NNE 4.6 mph - 0.00 in Snow Light Snow
1:52 PM 28.0 °F 22.8 °F 23.0 °F 81% 30.58 in 5.0 mi North 4.6 mph - 0.00 in Snow Light Snow
2:06 PM 28.4 °F - 23.0 °F 80% 30.56 in 2.5 mi Calm Calm - 0.00 in Snow Light Snow
2:20 PM 28.4 °F - 23.0 °F 80% 30.55 in 3.0 mi Calm Calm - 0.00 in Snow Light Snow
2:52 PM 28.0 °F 22.8 °F 23.0 °F 81% 30.58 in 9.0 mi North 4.6 mph - 0.00 in Snow Light Snow
3:52 PM 28.0 °F 22.8 °F 23.0 °F 81% 30.59 in 10.0 mi North 4.6 mph - 0.01 in   Overcast
4:35 PM 28.4 °F - 24.8 °F 86% 30.57 in 8.0 mi Calm Calm - N/A   Overcast
4:52 PM 28.0 °F 24.2 °F 24.1 °F 85% 30.60 in 6.0 mi North 3.5 mph - N/A   Overcast
5:52 PM 28.0 °F - 26.1 °F 92% 30.59 in 6.0 mi Calm Calm - N/A   Overcast
6:52 PM 28.0 °F 24.2 °F 26.1 °F 92% 30.58 in 4.0 mi North 3.5 mph - 0.00 in   Overcast
7:52 PM 28.0 °F 24.2 °F 26.1 °F 92% 30.57 in 3.0 mi North 3.5 mph - N/A   Overcast
8:52 PM 28.0 °F 21.7 °F 26.1 °F 92% 30.57 in 5.0 mi North 5.8 mph - N/A   Overcast
9:52 PM 28.0 °F - 26.1 °F 92% 30.55 in 5.0 mi Calm Calm - N/A   Overcast
10:18 PM 28.4 °F - 26.6 °F 93% 30.52 in 4.0 mi Calm Calm - N/A   Overcast
10:52 PM 28.9 °F 25.2 °F 27.0 °F 92% 30.54 in 6.0 mi North 3.5 mph - 0.00 in   Overcast
11:52 PM 28.9 °F - 27.0 °F 92% 30.52 in 5.0 mi Calm Calm - N/A   Overcast